When you browse on this site, cookies collect data to enhance your experience and personalize the content and advertising you see.
Visit our Privacy Policy to learn more. By continuing to use the site, you agree to this use of cookies and data.
  • In Slovakia
  • List of Countries
  • For 7 days
  • Water Temperature
  • Satellite Maps
  • Weather Map
  • Weather Widgets
  • user-avatar
    Login

    Hourly Weather Kranevo

    Today, 20 January, Sunday

    Time Temperature Precipitation Wind Pressure Humidity
    00:00 +2°C° 0.4 mm 5 mps 761 mmHg 92%
    01:00 +2°C° 0.4 mm 5 mps 761 mmHg 93%
    02:00 +2°C° 0 mm 5 mps 761 mmHg 93%
    03:00 +2°C° 0.2 mm 5 mps 761 mmHg 93%
    04:00 +4°C° 0.2 mm 4 mps 760 mmHg 94%
    05:00 +4°C° 0.2 mm 4 mps 760 mmHg 95%
    06:00 +4°C° 0.1 mm 4 mps 760 mmHg 95%
    07:00 +3°C° 0.1 mm 5 mps 759 mmHg 96%
    08:00 +4°C° 0 mm 4 mps 759 mmHg 96%
    09:00 +5°C° 0 mm 4 mps 759 mmHg 96%
    10:00 +5°C° 0 mm 4 mps 759 mmHg 97%
    11:00 +5°C° 0 mm 4 mps 759 mmHg 97%
    12:00 +6°C° 0 mm 4 mps 758 mmHg 96%
    13:00 +6°C° 0 mm 4 mps 758 mmHg 96%
    14:00 +6°C° 0 mm 4 mps 757 mmHg 96%
    15:00 +7°C° 0 mm 3 mps 757 mmHg 96%
    16:00 +7°C° 0 mm 3 mps 757 mmHg 97%
    17:00 +7°C° 0 mm 2 mps 756 mmHg 97%
    18:00 +7°C° 0 mm 3 mps 756 mmHg 97%
    19:00 +7°C° 0 mm 3 mps 756 mmHg 96%
    20:00 +7°C° 0 mm 3 mps 756 mmHg 96%
    21:00 +7°C° 0.1 mm 3 mps 756 mmHg 96%
    22:00 +8°C° 0.1 mm 3 mps 756 mmHg 95%
    23:00 +8°C° 0.1 mm 3 mps 756 mmHg 95%

    Tomorrow, 21 January, Monday

    Time Temperature Precipitation Wind Pressure Humidity
    00:00 +7°C° 0.1 mm 3 mps 756 mmHg 95%
    01:00 +5°C° 0.1 mm 3 mps 756 mmHg 95%
    02:00 +5°C° 0.1 mm 3 mps 756 mmHg 95%
    03:00 +4°C° 0 mm 4 mps 756 mmHg 93%
    04:00 +2°C° 0 mm 5 mps 756 mmHg 92%
    05:00 +2°C° 0 mm 6 mps 756 mmHg 91%
    06:00 +1°C° 0 mm 6 mps 757 mmHg 90%
    07:00 +1°C° 0 mm 5 mps 757 mmHg 89%
    08:00 +1°C° 0 mm 5 mps 758 mmHg 89%
    09:00 +1°C° 0 mm 5 mps 758 mmHg 86%
    10:00 +2°C° 0 mm 6 mps 759 mmHg 83%
    11:00 +2°C° 0 mm 6 mps 759 mmHg 80%
    12:00 +3°C° 0 mm 5 mps 759 mmHg 78%
    13:00 +3°C° 0 mm 5 mps 759 mmHg 76%
    14:00 +3°C° 0 mm 5 mps 759 mmHg 73%
    15:00 +4°C° 0 mm 4 mps 760 mmHg 75%
    16:00 +3°C° 0 mm 4 mps 760 mmHg 77%
    17:00 +1°C° 0 mm 4 mps 760 mmHg 79%
    18:00 +1°C° 0 mm 4 mps 761 mmHg 81%
    19:00 0°C° 0 mm 4 mps 761 mmHg 82%
    20:00 -1°C° 0 mm 4 mps 761 mmHg 84%
    21:00 0°C° 0 mm 3 mps 762 mmHg 84%
    22:00 0°C° 0 mm 3 mps 762 mmHg 85%
    23:00 -1°C° 0 mm 3 mps 762 mmHg 85%

    Day after tomorrow, 22 January, Tuesday

    Time Temperature Precipitation Wind Pressure Humidity
    00:00 -1°C° 0 mm 3 mps 762 mmHg 86%
    01:00 -1°C° 0 mm 3 mps 762 mmHg 87%
    02:00 -1°C° 0 mm 2 mps 762 mmHg 87%
    03:00 -1°C° 0 mm 2 mps 762 mmHg 88%
    04:00 -1°C° 0 mm 2 mps 761 mmHg 90%
    05:00 -1°C° 0 mm 2 mps 761 mmHg 91%
    06:00 0°C° 0 mm 3 mps 761 mmHg 90%
    07:00 0°C° 0 mm 3 mps 761 mmHg 89%
    08:00 +1°C° 0 mm 3 mps 761 mmHg 87%
    09:00 +1°C° 0 mm 3 mps 761 mmHg 86%
    10:00 +1°C° 0 mm 4 mps 761 mmHg 84%
    11:00 +1°C° 0 mm 4 mps 761 mmHg 82%
    12:00 +3°C° 0 mm 4 mps 760 mmHg 82%
    13:00 +3°C° 0 mm 4 mps 759 mmHg 82%
    14:00 +3°C° 0 mm 4 mps 759 mmHg 83%
    15:00 +3°C° 0 mm 4 mps 758 mmHg 84%
    16:00 +3°C° 0 mm 4 mps 758 mmHg 86%
    17:00 +2°C° 0 mm 5 mps 757 mmHg 88%
    18:00 +2°C° 0.1 mm 5 mps 757 mmHg 89%
    19:00 +2°C° 0.1 mm 5 mps 757 mmHg 90%
    20:00 +2°C° 0.1 mm 5 mps 756 mmHg 92%
    21:00 +2°C° 0.1 mm 6 mps 756 mmHg 92%
    22:00 +3°C° 0.1 mm 6 mps 756 mmHg 93%
    23:00 +3°C° 0.1 mm 6 mps 755 mmHg 93%

    23 January, Wednesday

    Time Temperature Precipitation Wind Pressure Humidity
    00:00 +3°C° 0 mm 6 mps 754 mmHg 93%
    01:00 +4°C° 0 mm 6 mps 754 mmHg 93%
    02:00 +4°C° 0 mm 6 mps 753 mmHg 93%
    03:00 +4°C° 0.4 mm 7 mps 752 mmHg 94%
    04:00 +4°C° 0.4 mm 7 mps 751 mmHg 96%
    05:00 +4°C° 0.4 mm 7 mps 751 mmHg 97%
    06:00 +5°C° 3 mm 7 mps 750 mmHg 96%
    07:00 +5°C° 3 mm 7 mps 750 mmHg 95%
    08:00 +6°C° 3 mm 7 mps 750 mmHg 95%
    09:00 +6°C° 0 mm 8 mps 749 mmHg 91%
    10:00 +7°C° 0 mm 8 mps 749 mmHg 87%
    11:00 +8°C° 0 mm 9 mps 749 mmHg 83%
    12:00 +10°C° 0 mm 9 mps 748 mmHg 79%
    13:00 +11°C° 0 mm 9 mps 748 mmHg 75%
    14:00 +12°C° 0 mm 8 mps 748 mmHg 71%
    15:00 +11°C° 0 mm 8 mps 748 mmHg 73%
    16:00 +10°C° 0 mm 7 mps 748 mmHg 75%
    17:00 +10°C° 0 mm 7 mps 748 mmHg 77%
    18:00 +9°C° 0 mm 7 mps 748 mmHg 79%
    19:00 +9°C° 0 mm 7 mps 749 mmHg 81%
    20:00 +9°C° 0 mm 7 mps 749 mmHg 83%
    21:00 +9°C° 0 mm 7 mps 749 mmHg 85%
    22:00 +9°C° 0 mm 7 mps 749 mmHg 88%
    23:00 +8°C° 0 mm 7 mps 750 mmHg 90%

    24 January, Thursday

    Time Temperature Precipitation Wind Pressure Humidity
    00:00 +8°C° 0 mm 6 mps 750 mmHg 90%
    01:00 +8°C° 0 mm 6 mps 750 mmHg 90%
    02:00 +8°C° 0 mm 5 mps 750 mmHg 91%
    03:00 +8°C° 0.1 mm 5 mps 750 mmHg 93%
    04:00 +7°C° 0.1 mm 5 mps 749 mmHg 95%
    05:00 +7°C° 0.1 mm 4 mps 749 mmHg 97%
    06:00 +7°C° 0.3 mm 4 mps 749 mmHg 97%
    07:00 +7°C° 0.3 mm 4 mps 749 mmHg 97%
    08:00 +7°C° 0.3 mm 4 mps 749 mmHg 97%
    09:00 +8°C° 0.1 mm 4 mps 749 mmHg 93%
    10:00 +9°C° 0.1 mm 5 mps 749 mmHg 89%
    11:00 +9°C° 0.1 mm 5 mps 749 mmHg 85%
    12:00 +10°C° 0 mm 5 mps 749 mmHg 81%
    13:00 +10°C° 0 mm 5 mps 748 mmHg 77%
    14:00 +10°C° 0 mm 6 mps 748 mmHg 73%
    15:00 +9°C° 0 mm 5 mps 747 mmHg 78%
    16:00 +8°C° 0 mm 4 mps 747 mmHg 82%
    17:00 +7°C° 0 mm 4 mps 747 mmHg 87%
    18:00 +7°C° 0 mm 5 mps 747 mmHg 89%
    19:00 +7°C° 0 mm 5 mps 748 mmHg 90%
    20:00 +7°C° 0 mm 6 mps 748 mmHg 92%
    21:00 +5°C° 0 mm 6 mps 748 mmHg 92%
    22:00 +6°C° 0 mm 5 mps 748 mmHg 92%
    23:00 +6°C° 0 mm 5 mps 748 mmHg 92%

    25 January, Friday

    Time Temperature Precipitation Wind Pressure Humidity
    00:00 +5°C° 0 mm 5 mps 748 mmHg 92%
    01:00 +5°C° 0 mm 5 mps 748 mmHg 93%
    02:00 +5°C° 0 mm 5 mps 748 mmHg 94%
    03:00 +5°C° 0 mm 5 mps 748 mmHg 94%
    04:00 +5°C° 0 mm 5 mps 747 mmHg 95%
    05:00 +4°C° 0 mm 6 mps 747 mmHg 95%
    06:00 +5°C° 0 mm 5 mps 748 mmHg 95%
    07:00 +5°C° 0 mm 5 mps 748 mmHg 95%
    08:00 +5°C° 0 mm 5 mps 748 mmHg 95%
    09:00 +6°C° 0.3 mm 4 mps 748 mmHg 93%
    10:00 +6°C° 0.3 mm 4 mps 748 mmHg 92%
    11:00 +8°C° 0.3 mm 3 mps 748 mmHg 90%
    12:00 +8°C° 0.2 mm 3 mps 748 mmHg 91%
    13:00 +8°C° 0.2 mm 2 mps 748 mmHg 92%
    14:00 +9°C° 0.2 mm 2 mps 748 mmHg 94%
    15:00 +9°C° 0 mm 2 mps 747 mmHg 94%
    16:00 +9°C° 0 mm 3 mps 747 mmHg 95%
    17:00 +9°C° 0 mm 3 mps 747 mmHg 95%
    18:00 +8°C° 0 mm 3 mps 747 mmHg 95%
    19:00 +8°C° 0 mm 3 mps 747 mmHg 94%
    20:00 +8°C° 0 mm 3 mps 746 mmHg 94%
    21:00 +7°C° 1.3 mm 4 mps 746 mmHg 95%
    22:00 +7°C° 1.3 mm 4 mps 746 mmHg 96%
    23:00 +7°C° 1.3 mm 5 mps 746 mmHg 96%
    Show more